AUA9636 LDSB-LOWI

Flight info

Callsign AUA9636
Flight time N/A
Altitude 20000
Route SPL L862 SABAD/N0320F240 DCT GIMIX DCT NANIT NANIT2A
Aircraft DH8D/M-SDE2E3FGRY/H

Departure

Time 2026-04-19 08:12
Airport Brač Airport (LDSB)

Arrival

Time N/A
Airport Innsbruck Airport (LOWI)
Time Latitude Longitude Altitude Speed Heading
2026-04-19 07:29 43.28843 16.67984 1731 ft 0 kts 79°
2026-04-19 08:07 43.28842 16.67992 1730 ft 2 kts 117°
2026-04-19 08:07 43.28809 16.68011 1729 ft 7 kts 184°
2026-04-19 08:08 43.28772 16.67992 1730 ft 5 kts 188°
2026-04-19 08:08 43.28719 16.68049 1726 ft 14 kts 134°
2026-04-19 08:08 43.28634 16.68032 1727 ft 12 kts 217°
2026-04-19 08:08 43.28557 16.67959 1733 ft 13 kts 216°
2026-04-19 08:09 43.28479 16.67880 1741 ft 14 kts 218°
2026-04-19 08:09 43.28391 16.67797 1748 ft 17 kts 215°
2026-04-19 08:09 43.28297 16.67708 1755 ft 16 kts 215°
2026-04-19 08:09 43.28199 16.67614 1762 ft 17 kts 214°
2026-04-19 08:10 43.28090 16.67509 1768 ft 20 kts 216°
2026-04-19 08:10 43.27972 16.67395 1772 ft 20 kts 216°
2026-04-19 08:10 43.27874 16.67300 1774 ft 9 kts 215°
2026-04-19 08:10 43.27831 16.67238 1775 ft 7 kts 195°
2026-04-19 08:11 43.27845 16.67273 1774 ft 6 kts 34°
2026-04-19 08:11 43.27911 16.67334 1773 ft 27 kts 35°
2026-04-19 08:11 43.28318 16.67728 1754 ft 112 kts 35°
2026-04-19 08:11 43.29035 16.68450 1939 ft 135 kts 37°
2026-04-19 08:12 43.29784 16.69254 2405 ft 143 kts 38°
2026-04-19 08:12 43.30532 16.70134 2880 ft 147 kts 40°
2026-04-19 08:12 43.31333 16.71049 3179 ft 160 kts 38°
2026-04-19 08:12 43.32274 16.72018 3438 ft 176 kts 33°
2026-04-19 08:13 43.33310 16.72933 3870 ft 183 kts 32°
2026-04-19 08:13 43.34234 16.74136 4249 ft 189 kts 65°
2026-04-19 08:13 43.34247 16.75890 4603 ft 193 kts 110°
2026-04-19 08:13 43.33679 16.77573 5073 ft 196 kts 114°
2026-04-19 08:14 43.33096 16.79243 5578 ft 196 kts 114°
2026-04-19 08:14 43.31927 16.82594 6522 ft 199 kts 113°
2026-04-19 08:14 43.31274 16.84245 6992 ft 202 kts 128°
2026-04-19 08:15 43.30038 16.85141 7342 ft 209 kts 178°
2026-04-19 08:15 43.28677 16.84547 7704 ft 211 kts 214°
2026-04-19 08:15 43.27478 16.83412 8164 ft 213 kts 216°
2026-04-19 08:15 43.26250 16.82233 8634 ft 215 kts 216°
2026-04-19 08:16 43.25044 16.81041 9099 ft 216 kts 221°
2026-04-19 08:16 43.24279 16.79357 9473 ft 213 kts 265°
2026-04-19 08:16 43.24599 16.77456 9788 ft 211 kts 306°
2026-04-19 08:16 43.25466 16.75784 9857 ft 231 kts 306°
2026-04-19 08:17 43.26328 16.73817 9943 ft 250 kts 301°
2026-04-19 08:17 43.27092 16.71688 10234 ft 257 kts 297°
2026-04-19 08:17 43.27788 16.69463 10712 ft 258 kts 294°
2026-04-19 08:17 43.28566 16.67270 11165 ft 256 kts 307°
2026-04-19 08:18 43.29688 16.65398 11643 ft 256 kts 313°
2026-04-19 08:18 43.30847 16.63548 12119 ft 258 kts 312°
2026-04-19 08:18 43.31991 16.61672 12621 ft 258 kts 311°
2026-04-19 08:18 43.33126 16.59770 13107 ft 259 kts 311°
2026-04-19 08:19 43.34264 16.57834 13540 ft 261 kts 311°
2026-04-19 08:19 43.35389 16.55897 13971 ft 263 kts 310°
2026-04-19 08:19 43.36523 16.53925 14404 ft 263 kts 310°
2026-04-19 08:19 43.37654 16.51942 14839 ft 264 kts 310°
2026-04-19 08:20 43.38784 16.49951 15247 ft 265 kts 310°
2026-04-19 08:20 43.39917 16.47948 15650 ft 267 kts 310°
2026-04-19 08:20 43.41023 16.45985 16021 ft 267 kts 310°
2026-04-19 08:20 43.42160 16.43961 16374 ft 268 kts 310°
2026-04-19 08:21 43.43303 16.41926 16730 ft 269 kts 310°
2026-04-19 08:21 43.44443 16.39889 17066 ft 270 kts 310°
2026-04-19 08:21 43.45579 16.37858 17393 ft 271 kts 310°
2026-04-19 08:21 43.46728 16.35800 17725 ft 271 kts 310°
2026-04-19 08:22 43.47832 16.33822 18016 ft 271 kts 309°
2026-04-19 08:22 43.48985 16.31758 18270 ft 274 kts 309°
2026-04-19 08:22 43.50353 16.29996 18541 ft 271 kts 329°
2026-04-19 08:22 43.51992 16.28800 18792 ft 271 kts 333°
2026-04-19 08:23 43.53690 16.27625 19004 ft 274 kts 334°
2026-04-19 08:23 43.55362 16.26467 19288 ft 273 kts 333°
2026-04-19 08:23 43.57063 16.25283 19539 ft 274 kts 333°
2026-04-19 08:23 43.58743 16.24111 19796 ft 274 kts 333°
2026-04-19 08:24 43.60442 16.22922 19993 ft 276 kts 333°
2026-04-19 08:24 43.62153 16.21723 20045 ft 282 kts 333°
2026-04-19 08:24 43.63914 16.20485 20055 ft 288 kts 333°
2026-04-19 08:24 43.65726 16.19210 20061 ft 294 kts 333°
2026-04-19 08:25 43.67554 16.17922 20062 ft 300 kts 333°
2026-04-19 08:25 43.69431 16.16598 20064 ft 305 kts 333°
2026-04-19 08:25 43.71343 16.15247 20068 ft 311 kts 333°
2026-04-19 08:25 43.73308 16.13858 20066 ft 315 kts 333°
2026-04-19 08:26 43.75254 16.12481 20059 ft 319 kts 333°
2026-04-19 08:26 43.77213 16.11095 20055 ft 320 kts 333°
2026-04-19 08:26 43.79191 16.09692 20058 ft 320 kts 333°
2026-04-19 08:26 43.81184 16.08279 20054 ft 322 kts 333°
2026-04-19 08:27 43.83147 16.06884 20054 ft 323 kts 333°
2026-04-19 08:27 43.85149 16.05463 20056 ft 324 kts 333°
2026-04-19 08:27 43.87164 16.04030 20056 ft 324 kts 333°
2026-04-19 08:27 43.89162 16.02607 20054 ft 325 kts 333°
2026-04-19 08:28 43.91182 16.01170 20056 ft 325 kts 333°
2026-04-19 08:28 43.93161 15.99760 20046 ft 323 kts 333°
2026-04-19 08:28 43.95132 15.98354 20049 ft 323 kts 333°
2026-04-19 08:28 43.97147 15.96916 20054 ft 325 kts 333°
2026-04-19 08:29 43.99192 15.95456 20051 ft 326 kts 333°
2026-04-19 08:29 44.01200 15.94022 20050 ft 327 kts 333°
2026-04-19 08:29 44.03218 15.92578 20051 ft 326 kts 333°
2026-04-19 08:29 44.05233 15.91137 20050 ft 324 kts 333°
2026-04-19 08:30 44.07223 15.89712 20056 ft 325 kts 333°
2026-04-19 08:30 44.09221 15.88280 20057 ft 325 kts 333°
2026-04-19 08:30 44.11188 15.86869 20054 ft 323 kts 333°
2026-04-19 08:30 44.13180 15.85438 20061 ft 324 kts 333°
2026-04-19 08:31 44.15177 15.84004 20062 ft 324 kts 333°
2026-04-19 08:31 44.17190 15.82558 20067 ft 325 kts 333°
2026-04-19 08:31 44.19210 15.81107 20062 ft 326 kts 333°
2026-04-19 08:31 44.21222 15.79661 20063 ft 326 kts 333°
2026-04-19 08:32 44.23226 15.78218 20067 ft 325 kts 333°
2026-04-19 08:32 44.25230 15.76774 20078 ft 326 kts 333°
2026-04-19 08:32 44.27249 15.75319 20075 ft 326 kts 333°
2026-04-19 08:32 44.29258 15.73870 20067 ft 326 kts 333°
2026-04-19 08:33 44.31283 15.72408 20068 ft 325 kts 333°
2026-04-19 08:33 44.33285 15.70961 20070 ft 325 kts 333°
2026-04-19 08:33 44.35257 15.69535 20065 ft 324 kts 333°
2026-04-19 08:33 44.37247 15.68095 20072 ft 325 kts 333°
2026-04-19 08:34 44.39238 15.66652 20069 ft 325 kts 333°
2026-04-19 08:34 44.41232 15.65205 20066 ft 324 kts 333°
2026-04-19 08:34 44.43248 15.63741 20069 ft 325 kts 333°
2026-04-19 08:34 44.45249 15.62286 20061 ft 325 kts 333°
2026-04-19 08:35 44.47265 15.60820 20068 ft 325 kts 333°
2026-04-19 08:35 44.49255 15.59370 20067 ft 324 kts 333°
2026-04-19 08:35 44.51258 15.57910 20075 ft 325 kts 333°
2026-04-19 08:35 44.53266 15.56446 20069 ft 325 kts 333°
2026-04-19 08:36 44.55206 15.55029 20068 ft 324 kts 333°
2026-04-19 08:36 44.57068 15.53669 20069 ft 323 kts 333°
2026-04-19 08:36 44.59062 15.52210 20073 ft 323 kts 333°
2026-04-19 08:36 44.61023 15.50776 20074 ft 323 kts 333°
2026-04-19 08:37 44.62999 15.49330 20077 ft 323 kts 333°
2026-04-19 08:37 44.64992 15.47871 20073 ft 322 kts 333°
2026-04-19 08:37 44.66964 15.46425 20072 ft 322 kts 333°
2026-04-19 08:37 44.68979 15.44947 20078 ft 323 kts 333°
2026-04-19 08:38 44.70961 15.43492 20076 ft 323 kts 333°
2026-04-19 08:38 44.72942 15.42037 20070 ft 324 kts 333°
2026-04-19 08:38 44.74927 15.40579 20076 ft 324 kts 333°
2026-04-19 08:38 44.76933 15.39103 20082 ft 325 kts 333°
2026-04-19 08:39 44.78928 15.37634 20081 ft 323 kts 333°
2026-04-19 08:39 44.80904 15.36178 20076 ft 323 kts 333°
2026-04-19 08:39 44.82764 15.34805 20077 ft 322 kts 332°
2026-04-19 08:39 44.84786 15.33314 20077 ft 321 kts 332°
2026-04-19 08:40 44.86758 15.31857 20082 ft 322 kts 332°
2026-04-19 08:40 44.88760 15.30377 20086 ft 324 kts 332°
2026-04-19 08:40 44.90733 15.28918 20080 ft 324 kts 332°
2026-04-19 08:40 44.92696 15.27464 20077 ft 325 kts 332°
2026-04-19 08:41 44.94689 15.25987 20077 ft 325 kts 332°
2026-04-19 08:41 44.96692 15.24499 20077 ft 325 kts 332°
2026-04-19 08:41 44.98682 15.23016 20081 ft 325 kts 332°
2026-04-19 08:41 45.00650 15.21551 20084 ft 324 kts 332°
2026-04-19 08:42 45.02629 15.20076 20082 ft 323 kts 332°
2026-04-19 08:42 45.04582 15.18619 20079 ft 323 kts 332°
2026-04-19 08:42 45.06562 15.17141 20078 ft 323 kts 332°
2026-04-19 08:42 45.08545 15.15652 20078 ft 322 kts 332°
2026-04-19 08:43 45.10444 15.14221 20088 ft 322 kts 332°
2026-04-19 08:43 45.12254 15.12857 20082 ft 320 kts 332°
2026-04-19 08:43 45.14307 15.11309 20081 ft 322 kts 332°
2026-04-19 08:43 45.16275 15.09824 20078 ft 321 kts 332°
2026-04-19 08:44 45.18253 15.08329 20078 ft 322 kts 332°
2026-04-19 08:44 45.20226 15.06838 20085 ft 323 kts 332°
2026-04-19 08:44 45.22223 15.05328 20087 ft 323 kts 332°
2026-04-19 08:44 45.24200 15.03831 20086 ft 323 kts 332°
2026-04-19 08:45 45.26172 15.02336 20087 ft 325 kts 332°
2026-04-19 08:45 45.28172 15.00820 20087 ft 325 kts 332°
2026-04-19 08:45 45.30132 14.99330 20091 ft 323 kts 332°
2026-04-19 08:45 45.32132 14.97811 20088 ft 324 kts 332°
2026-04-19 08:46 45.34127 14.96295 20089 ft 325 kts 332°
2026-04-19 08:46 45.36125 14.94775 20084 ft 326 kts 332°
2026-04-19 08:46 45.38103 14.93269 20077 ft 325 kts 332°
2026-04-19 08:46 45.40044 14.91790 20072 ft 324 kts 332°
2026-04-19 08:47 45.42018 14.90285 20080 ft 324 kts 332°
2026-04-19 08:47 45.43993 14.88778 20073 ft 324 kts 332°
2026-04-19 08:47 45.45999 14.87243 20078 ft 326 kts 331°
2026-04-19 08:47 45.47871 14.85505 20081 ft 325 kts 324°
2026-04-19 08:48 45.49662 14.83592 20066 ft 323 kts 323°
2026-04-19 08:48 45.51454 14.81664 20064 ft 323 kts 323°
2026-04-19 08:48 45.53218 14.79769 20070 ft 323 kts 323°
2026-04-19 08:48 45.54975 14.77880 20068 ft 323 kts 323°
2026-04-19 08:49 45.56761 14.75965 20073 ft 324 kts 323°
2026-04-19 08:49 45.58554 14.74042 20069 ft 325 kts 323°
2026-04-19 08:49 45.60354 14.72111 20075 ft 325 kts 323°
2026-04-19 08:49 45.62141 14.70191 20077 ft 325 kts 323°
2026-04-19 08:50 45.63941 14.68258 20074 ft 325 kts 323°
2026-04-19 08:50 45.65738 14.66328 20074 ft 325 kts 323°
2026-04-19 08:50 45.67530 14.64401 20073 ft 325 kts 323°
2026-04-19 08:50 45.69328 14.62466 20080 ft 325 kts 323°
2026-04-19 08:51 45.71113 14.60545 20078 ft 325 kts 323°
2026-04-19 08:51 45.72892 14.58628 20072 ft 323 kts 323°
2026-04-19 08:51 45.74679 14.56701 20078 ft 323 kts 323°
2026-04-19 08:51 45.76448 14.54792 20072 ft 323 kts 323°
2026-04-19 08:52 45.78225 14.52874 20076 ft 324 kts 323°
2026-04-19 08:52 45.79989 14.50968 20072 ft 323 kts 323°
2026-04-19 08:52 45.81755 14.49057 20076 ft 323 kts 323°
2026-04-19 08:52 45.83544 14.47121 20079 ft 323 kts 323°
2026-04-19 08:53 45.85292 14.45229 20072 ft 323 kts 323°
2026-04-19 08:53 45.87075 14.43294 20074 ft 323 kts 323°
2026-04-19 08:53 45.88858 14.41359 20074 ft 324 kts 323°
2026-04-19 08:53 45.90567 14.39502 20083 ft 323 kts 323°
2026-04-19 08:54 45.92340 14.37575 20078 ft 323 kts 322°
2026-04-19 08:54 45.94112 14.35648 20076 ft 321 kts 323°
2026-04-19 08:54 45.95792 14.33819 20082 ft 321 kts 322°
2026-04-19 08:54 45.97581 14.31868 20083 ft 322 kts 322°
2026-04-19 08:55 45.99326 14.29966 20077 ft 322 kts 322°
2026-04-19 08:55 46.01084 14.28048 20081 ft 323 kts 322°
2026-04-19 08:55 46.02881 14.26086 20095 ft 324 kts 322°
2026-04-19 08:55 46.04637 14.24168 20077 ft 322 kts 322°
2026-04-19 08:56 46.06416 14.22222 20062 ft 321 kts 322°
2026-04-19 08:56 46.08155 14.20316 20089 ft 322 kts 322°
2026-04-19 08:56 46.09927 14.18376 20062 ft 321 kts 322°
2026-04-19 08:56 46.11453 14.16703 20055 ft 319 kts 322°
2026-04-19 08:57 46.13328 14.14644 20093 ft 319 kts 322°
2026-04-19 08:57 46.15102 14.12697 20098 ft 320 kts 322°
2026-04-19 08:57 46.16854 14.10771 20045 ft 322 kts 322°
2026-04-19 08:57 46.18613 14.08837 20074 ft 320 kts 322°
2026-04-19 08:58 46.20351 14.06925 20082 ft 321 kts 322°
2026-04-19 08:58 46.22097 14.05001 20087 ft 320 kts 322°
2026-04-19 08:58 46.23799 14.03121 20095 ft 320 kts 322°
2026-04-19 08:58 46.25537 14.01203 20101 ft 319 kts 321°
2026-04-19 08:59 46.27269 13.99290 20100 ft 321 kts 322°
2026-04-19 08:59 46.29037 13.97336 20095 ft 323 kts 321°
2026-04-19 08:59 46.30849 13.95331 20101 ft 325 kts 321°
2026-04-19 08:59 46.32617 13.93372 20104 ft 323 kts 321°
2026-04-19 09:00 46.34376 13.91422 20105 ft 323 kts 322°
2026-04-19 09:00 46.36127 13.89481 20107 ft 325 kts 322°
2026-04-19 09:00 46.37900 13.87512 20104 ft 324 kts 321°
2026-04-19 09:00 46.39646 13.85573 20099 ft 324 kts 321°
2026-04-19 09:01 46.41404 13.83619 20101 ft 324 kts 321°
2026-04-19 09:01 46.43097 13.81734 20101 ft 323 kts 321°
2026-04-19 09:01 46.44816 13.79819 20103 ft 322 kts 321°
2026-04-19 09:01 46.46544 13.77891 20106 ft 320 kts 321°
2026-04-19 09:02 46.48308 13.75922 20107 ft 321 kts 321°
2026-04-19 09:02 46.49943 13.74097 20107 ft 321 kts 321°
2026-04-19 09:02 46.51577 13.72271 20102 ft 321 kts 321°
2026-04-19 09:02 46.53319 13.69993 20110 ft 320 kts 314°
2026-04-19 09:03 46.54843 13.67654 20107 ft 321 kts 313°
2026-04-19 09:03 46.56332 13.65351 20103 ft 321 kts 313°
2026-04-19 09:03 46.57847 13.63006 20108 ft 321 kts 313°
2026-04-19 09:03 46.59358 13.60669 20113 ft 322 kts 313°
2026-04-19 09:04 46.60857 13.58353 20115 ft 323 kts 313°
2026-04-19 09:04 46.62383 13.55995 20119 ft 323 kts 313°
2026-04-19 09:04 46.63902 13.53649 20118 ft 322 kts 313°
2026-04-19 09:04 46.65412 13.51314 20116 ft 323 kts 313°
2026-04-19 09:05 46.66942 13.48948 20117 ft 323 kts 313°
2026-04-19 09:05 46.68439 13.46631 20113 ft 324 kts 313°
2026-04-19 09:05 46.69903 13.44366 20113 ft 324 kts 313°
2026-04-19 09:05 46.70935 13.42768 20118 ft 323 kts 313°
2026-04-19 09:06 46.72557 13.40254 20118 ft 322 kts 313°
2026-04-19 09:06 46.74387 13.37415 20110 ft 320 kts 313°
2026-04-19 09:06 46.75904 13.35059 20126 ft 322 kts 313°
2026-04-19 09:06 46.76977 13.33392 20120 ft 324 kts 312°
2026-04-19 09:07 46.78325 13.31297 20123 ft 324 kts 312°
2026-04-19 09:07 46.79799 13.29000 20124 ft 323 kts 312°
2026-04-19 09:07 46.81370 13.26553 20127 ft 324 kts 312°
2026-04-19 09:07 46.82637 13.24578 20130 ft 325 kts 312°
2026-04-19 09:08 46.84045 13.22381 20127 ft 325 kts 312°
2026-04-19 09:08 46.85466 13.20163 20129 ft 326 kts 312°
2026-04-19 09:08 46.87117 13.17581 20127 ft 327 kts 312°
2026-04-19 09:08 46.89123 13.14444 20118 ft 327 kts 312°
2026-04-19 09:09 46.90640 13.12067 20110 ft 327 kts 312°
2026-04-19 09:09 46.92199 13.09623 20091 ft 327 kts 312°
2026-04-19 09:09 46.93742 13.07201 20096 ft 327 kts 312°
2026-04-19 09:09 46.94982 13.05254 20092 ft 327 kts 312°
2026-04-19 09:10 46.96164 13.03394 20093 ft 325 kts 312°
2026-04-19 09:10 46.97498 13.01295 20103 ft 326 kts 312°
2026-04-19 09:10 46.99041 12.98864 20102 ft 324 kts 312°
2026-04-19 09:10 47.00997 12.95781 20107 ft 324 kts 312°
2026-04-19 09:11 47.02652 12.93170 20104 ft 323 kts 312°
2026-04-19 09:11 47.04098 12.90888 20100 ft 322 kts 312°
2026-04-19 09:11 47.05606 12.88507 20102 ft 324 kts 312°
2026-04-19 09:11 47.07116 12.86119 20104 ft 326 kts 312°
2026-04-19 09:12 47.08151 12.84483 20102 ft 326 kts 312°
2026-04-19 09:12 47.10862 12.80191 20100 ft 327 kts 312°
2026-04-19 09:12 47.12129 12.78181 20098 ft 328 kts 312°
2026-04-19 09:13 47.13939 12.75309 20099 ft 325 kts 312°
2026-04-19 09:13 47.15620 12.72636 20105 ft 323 kts 312°
2026-04-19 09:13 47.16856 12.70671 20109 ft 321 kts 312°
2026-04-19 09:13 47.18657 12.67804 20110 ft 320 kts 312°
2026-04-19 09:14 47.20355 12.65097 20131 ft 320 kts 312°
2026-04-19 09:14 47.21949 12.62554 20141 ft 322 kts 312°
2026-04-19 09:14 47.23467 12.60131 20136 ft 324 kts 312°
2026-04-19 09:14 47.24989 12.57698 20129 ft 326 kts 312°
2026-04-19 09:15 47.26500 12.55280 20133 ft 327 kts 311°
2026-04-19 09:15 47.27986 12.52901 20137 ft 325 kts 311°
2026-04-19 09:15 47.30955 12.48139 20140 ft 323 kts 311°
2026-04-19 09:16 47.32452 12.45735 20132 ft 323 kts 311°
2026-04-19 09:16 47.33905 12.43399 19904 ft 320 kts 311°
2026-04-19 09:16 47.35318 12.41121 19549 ft 321 kts 311°
2026-04-19 09:16 47.36867 12.38623 19107 ft 325 kts 311°
2026-04-19 09:17 47.38367 12.36170 18609 ft 330 kts 309°
2026-04-19 09:17 47.39348 12.33596 18197 ft 324 kts 288°
2026-04-19 09:17 47.39771 12.30288 17730 ft 320 kts 278°
2026-04-19 09:17 47.40075 12.27049 17177 ft 318 kts 278°
2026-04-19 09:18 47.40370 12.23836 16697 ft 316 kts 278°
2026-04-19 09:18 47.40656 12.20709 16261 ft 315 kts 278°
2026-04-19 09:18 47.40947 12.17547 15816 ft 314 kts 278°
2026-04-19 09:18 47.41235 12.14399 15363 ft 310 kts 278°
2026-04-19 09:19 47.41512 12.11364 14940 ft 302 kts 278°
2026-04-19 09:19 47.41786 12.08355 14513 ft 296 kts 278°
2026-04-19 09:19 47.42050 12.05469 14124 ft 289 kts 278°
2026-04-19 09:19 47.42316 12.02565 13708 ft 284 kts 278°
2026-04-19 09:20 47.42572 11.99760 13320 ft 280 kts 278°
2026-04-19 09:20 47.42792 11.97029 12833 ft 281 kts 274°
2026-04-19 09:20 47.42375 11.94326 12373 ft 273 kts 242°
2026-04-19 09:20 47.41134 11.92479 12072 ft 261 kts 217°
2026-04-19 09:21 47.39692 11.91125 11723 ft 249 kts 214°
2026-04-19 09:21 47.38295 11.89864 11400 ft 246 kts 214°
2026-04-19 09:21 47.36854 11.88574 11060 ft 246 kts 213°
2026-04-19 09:21 47.35406 11.87286 10715 ft 248 kts 213°
2026-04-19 09:22 47.34003 11.85926 10414 ft 245 kts 223°
2026-04-19 09:22 47.33047 11.84002 10086 ft 241 kts 248°
2026-04-19 09:22 47.32588 11.81713 9740 ft 240 kts 260°
2026-04-19 09:22 47.32303 11.79324 9349 ft 244 kts 262°
2026-04-19 09:23 47.32026 11.76988 8967 ft 246 kts 261°
2026-04-19 09:23 47.31708 11.74583 8533 ft 244 kts 260°
2026-04-19 09:23 47.31374 11.72204 8067 ft 237 kts 260°
2026-04-19 09:23 47.31043 11.69896 7629 ft 230 kts 260°
2026-04-19 09:24 47.30725 11.67679 7212 ft 222 kts 260°
2026-04-19 09:24 47.30428 11.65609 6856 ft 213 kts 260°
2026-04-19 09:24 47.30133 11.63557 6580 ft 202 kts 260°
2026-04-19 09:24 47.29850 11.61592 6227 ft 195 kts 261°
2026-04-19 09:25 47.29577 11.59693 5871 ft 189 kts 260°
2026-04-19 09:25 47.29306 11.57843 5563 ft 187 kts 260°
2026-04-19 09:25 47.29044 11.56034 5280 ft 185 kts 260°
2026-04-19 09:25 47.28786 11.54250 5009 ft 178 kts 261°
2026-04-19 09:26 47.28556 11.52651 4763 ft 169 kts 261°
2026-04-19 09:26 47.28337 11.51122 4547 ft 165 kts 261°
2026-04-19 09:26 47.28126 11.49589 4300 ft 169 kts 261°
2026-04-19 09:26 47.27889 11.47894 4047 ft 173 kts 261°
2026-04-19 09:27 47.27562 11.46332 3678 ft 168 kts 250°
2026-04-19 09:27 47.27164 11.44850 3371 ft 153 kts 256°
2026-04-19 09:27 47.26921 11.43470 3151 ft 139 kts 260°
2026-04-19 09:27 47.26767 11.42202 2946 ft 135 kts 265°
2026-04-19 09:28 47.26654 11.40953 2760 ft 130 kts 265°
2026-04-19 09:28 47.26526 11.39729 2561 ft 132 kts 266°
2026-04-19 09:29 47.26041 11.34524 2486 ft 136 kts 268°
2026-04-19 09:29 47.26009 11.33300 2777 ft 154 kts 270°
2026-04-19 09:29 47.25893 11.31457 3437 ft 162 kts 265°
2026-04-19 09:30 47.25727 11.29840 3838 ft 165 kts 262°